Weather History for New Iberia, LA

Change the Weather History Date:

Wednesday, May 13, 2009

  Actual Average Record
Temperature  
Mean Temperature 79 °F 76 °F  
Max Temperature 88 °F 86 °F 93 °F (2007)
Min Temperature 69 °F 66 °F 49 °F (1960)
Degree Days  
Heating Degree Days 0 0  
Month to date heating degree days 0 0  
Since 1 July heating degree days 1243 1408  
Cooling Degree Days 14 11  
Month to date cooling degree days 182 119  
Year to date cooling degree days 468 339  
Growing Degree Days 28 (Base 50)    
Moisture  
Dew Point 69 °F    
Average Humidity 76    
Maximum Humidity 97    
Minimum Humidity 55    
Precipitation  
Precipitation 0.00 in 0.12 in 2.72 in (1999)
Month to date precipitation 0.46 1.60  
Year to date precipitation 14.98 18.85  
Sea Level Pressure  
Sea Level Pressure 30.00 in    
Wind  
Wind Speed 8 mph (SSE)    
Max Wind Speed 18 mph    
Max Gust Speed 22 mph    
Visibility 9 miles    
Events      
T = Trace of Precipitation, MM = Missing Value Source: NWS Daily Summary

Daily Weather History Graph

Daily Weather History Graph

Search for Another Location

Airport:

Trip Planner

Search our weather history database for the weather conditions in past years. The results will help you decide how hot, cold, wet, or windy it might be!

Date:

Astronomy

May. 13, 2009 Rise Set
Actual Time 6:15 AM CDT 7:52 PM CDT
Civil Twilight 5:49 AM CDT 8:19 PM CDT
Nautical Twilight 5:17 AM CDT 8:50 PM CDT
Astronomical Twilight 4:45 AM CDT 9:23 PM CDT
Moon No Moon Rise 9:35 AM CDT (5/13)
Length of Visible Light 14h 29m
Length of Day
13h 37m
Waning Gibbous, 82% of the Moon is Illuminated
May 13
Waning Gibbous
May 17
Last Quarter
May 24
New
May 30
First Quarter
Jun 7
Full

Hourly Weather History & Observations

Time (CDT) Temp. Heat Index Dew Point Humidity Pressure Visibility Wind Dir Wind Speed Gust Speed Precip Events Conditions
12:53 AM 72.0 °F - 69.1 °F 91% 29.99 in 9.0 mi SE 6.9 mph - N/A   Clear
1:53 AM 71.1 °F - 69.1 °F 93% 29.98 in 9.0 mi ESE 3.5 mph - N/A   Clear
2:53 AM 71.1 °F - 68.0 °F 90% 29.99 in 8.0 mi Calm Calm - N/A   Clear
3:53 AM 71.1 °F - 68.0 °F 90% 29.99 in 8.0 mi Calm Calm - N/A   Clear
4:53 AM 70.0 °F - 68.0 °F 93% 29.99 in 5.0 mi SE 4.6 mph - N/A   Clear
5:53 AM 70.0 °F - 68.0 °F 93% 29.97 in 5.0 mi SE 5.8 mph - N/A   Clear
6:53 AM 71.1 °F - 69.1 °F 93% 29.99 in 6.0 mi SE 5.8 mph - N/A   Clear
7:41 AM 75.2 °F - 73.4 °F 94% 30.01 in 8.0 mi SE 4.6 mph - N/A   Mostly Cloudy
7:53 AM 75.9 °F - 73.0 °F 91% 30.01 in 9.0 mi SSE 4.6 mph - N/A   Mostly Cloudy
8:19 AM 78.8 °F - 73.4 °F 83% 30.02 in 10.0 mi SSW 10.4 mph - N/A   Scattered Clouds
8:53 AM 80.1 °F 83.8 °F 72.0 °F 76% 30.02 in 10.0 mi South 12.7 mph - N/A   Clear
9:53 AM 82.9 °F 86.5 °F 69.1 °F 63% 30.02 in 10.0 mi South 12.7 mph - N/A   Scattered Clouds
10:53 AM 84.9 °F 88.8 °F 69.1 °F 59% 30.03 in 10.0 mi South 13.8 mph 20.7 mph N/A   Scattered Clouds
11:53 AM 84.9 °F 89.4 °F 70.0 °F 61% 30.03 in 10.0 mi South 16.1 mph 20.7 mph N/A   Partly Cloudy
12:53 PM 86.0 °F 90.7 °F 70.0 °F 59% 30.02 in 10.0 mi SSW 13.8 mph - N/A   Partly Cloudy
1:53 PM 86.0 °F 89.4 °F 68.0 °F 55% 30.01 in 10.0 mi South 12.7 mph 20.7 mph N/A   Clear
2:53 PM 86.0 °F 89.4 °F 68.0 °F 55% 29.99 in 10.0 mi SSW 10.4 mph 20.7 mph N/A   Clear
3:53 PM 86.0 °F 89.4 °F 68.0 °F 55% 29.97 in 10.0 mi South 12.7 mph - N/A   Clear
4:53 PM 84.9 °F 89.4 °F 70.0 °F 61% 29.98 in 10.0 mi South 11.5 mph - N/A   Clear
5:53 PM 82.9 °F 86.5 °F 69.1 °F 63% 29.99 in 10.0 mi South 11.5 mph - N/A   Clear
6:53 PM 81.0 °F 84.4 °F 70.0 °F 69% 29.98 in 10.0 mi SSE 9.2 mph - N/A   Clear
7:53 PM 77.0 °F - 70.0 °F 79% 29.99 in 10.0 mi SSE 8.1 mph - N/A   Clear
8:53 PM 73.9 °F - 69.1 °F 85% 30.00 in 10.0 mi SSE 4.6 mph - N/A   Clear
9:53 PM 73.0 °F - 68.0 °F 84% 30.00 in 10.0 mi SE 5.8 mph - N/A   Clear
10:53 PM 72.0 °F - 68.0 °F 87% 30.02 in 10.0 mi SSE 5.8 mph - N/A   Clear
11:53 PM 73.0 °F - 69.1 °F 87% 30.01 in 10.0 mi SE 5.8 mph - N/A   Clear